Погода в Шенкурске

Поиск расширенной информации на нашем сайте:

Полезная информация:

Новости сайта



02.01.2020
Опубликован Долгосрочный прогноз погоды по городам России и ближнего зарубежья на январь 2020 года.
Карты: Прогноз на январь и февраль 2020 года, Сравнение прогнозируемой аномалии приземной температуры воздуха на январь 2020 года по разным моделям.




Погода в Шенкурске - сегодня

Время (UTC), дата Ветер
(°,м/с) 
Видим.   Явления Облачность Т
(°С)
Тd
(°С)
f(%) Тe
(°С)
Pmin
(гПа)
dP
(гПа)
Po
(мм)
O2
(г/м3)
Тmin Tmax R s Состояние
почвы
00 29.11.20 060 (СВ) 10 км    ясно 
-14.9 -16 91 -17  1041.3  0.6  777  332           
03 29.11.20 090 (В) 10 км    ясно 
-14.8 -16.1 90 -17  1041.3  777  332  -15.4      равномерный
сухой снег
100% 
06 29.11.20 050 (СВ) 10 км    ясно 
-16.2 -17.2 92 -16  1041.3  777  334  -16.5         
09 29.11.20 070 (В) 10 км    10/0 верхняя 
[Cs]
-12.1 -13.3 91 -12  1041.8  0.5  777  329           
12 29.11.20 070 (В) 10 км  в посл. час снег  10/8 360 м средняя 
[Sc|Ac und]
-9.8 -10.3 96 -10  1041.1  -0.6  777  326           
15 29.11.20 100 (В) 10 км    10/0 средняя 
[Ac und]
-7.8 -8.1 98 -8  1040.6  -0.4  776  323    -7.8  0.0     
18 29.11.20 100 (В) 4000 м  дымка  10/10 360 м 
[Sc]
-6.7 -6.9 98 -6  1040.4  -0.3  776  321           
21 29.11.20 090 (В) 10 км    10/10 420 м 
[Sc]
-6.2 -6.6 97 -6  1039.5  -0.8  776  321           
00 30.11.20 150 (ЮВ) 10 км    10/10 420 м 
[Sc]
-4.5 -5.1 96 -6  1038.3  -1.2  775  318           
03 30.11.20 170 (Ю) 10 км    10/10 330 м 
[Sc]
-3.6 -3.8 99 -6  1037.3  -0.9  774  317  -7.8      равномерный
сухой снег
100% 
06 30.11.20 140 (ЮВ) 10 км  {снег}  10/10 300 м 
[Sc]
-2.2 -2.3 99 -3  1036.6  -0.7  773  315           
09 30.11.20 150 (ЮВ) 10 км    10/10 360 м 
[Sc]
-1.3 -2.1 94 -2  1035.8  -0.8  773  313           
12 30.11.20 140 (ЮВ) 10 км    8/6 930 м средняя 
[Sc|Ac As]
-0.9 -1.9 93 -2  1033.9  -1.9  771  312           
15 30.11.20 160 (Ю) 10 км    10/10 600 м 
[Sc]
-0.1 -1.8 88 -2  1032.1  -1.9  770  311    -0.1  0.0     
18 30.11.20 170 (Ю) 10 км    10/10 800 м 
[Sc]
+0.2 -1.5 88 -2  1030.3  -1.8  769  310           
21 30.11.20 180 (Ю) 10 км    10/10 600 м 
[Sc]
+0.7 -0.7 90 -2  1029.2  -1.1  768  309           
00 01.12.20 180 (Ю) 5{10}  10 км    10/10 500 м 
[Sc]
+0.5 -0.7 92 -2  1028.7  -0.5  768  309           
03 01.12.20 180 (Ю) 4{11}  н/о    н/о 
-0.2 -1.5 91 -3  1028.4  -0.3  767  310  -0.2         
06 01.12.20 180 (Ю) 4{10}  10 км  в посл. час снег  10/10 480 м 
[Sc]
-1.2 -2.7 90 -4  1028.5  0.1  767  311  -1.2         
09 01.12.20 180 (Ю) 5{10}  10 км  слаб. ливневой снег  10/10 600 м кучево-дожд. 
[Cb cap]
-2.2 -3.8 89 -6  1028.6  767  312           
12 01.12.20 190 (Ю) 5{10}  4000 м  слаб. ливневой снег  10/10 600 м кучево-дожд. 
[Cb cap]
-3 -3.7 95 -7  1028.3  -0.3  767  313           
15 01.12.20 190 (Ю) 6{10}  10 км  позёмок{ливн. осадки}  10/8 420 м кучево-дожд., средняя 
[Cb cap|Ac As]
-2.6 -3.9 91 -7  1028.6  0.3  767  313    -0.2     
21 01.12.20 190 (Ю) 6{10}  10 км    10/10 630 м 
[Sc]
-2.2 -3.7 89 -6  1029.6  0.2  768  313           
00 02.12.20 190 (Ю) 5{11}  10 км    10/10 720 м 
[Sc]
-1.8 -3.5 88 -5  1029.2  -0.3  768  312           
03 02.12.20 190 (Ю) 6-10{11}  10 км    10/10 420 м 
[Sc]
-1.9 -3.3 90 -6  1029.3  768  312  -2.6      равномерный
сухой снег
100% 
Время (UTC), дата Ветер
(°,м/с) 
Видим.   Явления Облачность Т
(°С)
Тd
(°С)
f(%) Тe
(°С)
Pmin
(гПа)
dP
(гПа)
Po
(мм)
O2
(г/м3)
Тmin Tmax R s Состояние
почвы

Для получения пояснительной информации подведите курсор к названию столбца.

ПОГОДА в Шенкурске - архив

Всё, что Вы хотите узнать о погоде в Шенкурске - удобно и подробно!

Выберите нужную дату (начиная с 1 января 2019* года) и нажмите кнопку "Найти".
Будут отображены архивные сводки погоды по пункту Шенкурск, начиная с указанной даты.


Отображать данные в формате CSV (для использования в таблицах Excel)


Внимание! Наш архив погоды предназначен исключительно для личного некоммерческого использования в познавательных целях. Если Вам необходимы официальные справки о состоянии погоды (для производственных, юридических, коммерческих и т.п. целей), обращайтесь в органы Росгидромета.

*Примечание: данная дата относится к архиву по метеостанциям СССР (Россия, СНГ, Балтия).
Архив по метеостанциям Зарубежной Европы и Азии (кроме Китая) хранится 10 дней, по другим регионам земного шара (Китай, Африка, Америка, Австралия, Океания) - 1 день.

Шенкурск - район местоположения метеостанции


Название, широта, долгота, высота метеостанции:
Шенкурск 62.1°ш. 42.9°д. 45 м над ур. моря [Российская Федерация]

Дополнительная информация

В oтличие oт бoльшинства пoгoдных сайтoв мы публикуем пoдрoбную метеoинфoрмацию в детальнoм прoфессиoнальнoм фoрмате.

Характеристики температуры и влажнoсти вoздуха измеряются на высoте 2 м в тени вдали oт зданий и деревьев.
Скoрoсть ветра измеряется на высoте 10 м (на урoвне рoста челoвека скoрoсть ветра ниже в 1.5-2 раза). Если метеoстанция нахoдится в гoрoде или в лесу, тo скoрoсть ветра занижена на 2-4 м/с пo сравнению с oткрытым местoм. Скoрoсть ветра над акватoриями крупных рек и oзёр, а также на вершинах хoлмoв на 2-5 м/с выше, чем в oбычных услoвиях.
Атмoсфернoе давление в разных тoчках местнoсти мoжет значительнo oтличаться oт давления на метеoстанции, в зависимoсти oт услoвий рельефа (при пoдъёме на 10 м давление пoнижается примернo на 1 мм рт.ст.).